Погода в Фос-ду-Игуасу

Бразилия     25°33′06″S   54°34′58″W
темп.,
°C
ветер,
м/с
пор.,
м/с
влажн.,
%
обл.,
%
осадки,
мм/ч
давл.,
гПа
погр.,
м
1 марта, пн
пн100:00+23в387619 0.0 1010306
03:00+22св388310 0.0 1009364
06:00+21всв27890 0.0 1010326
09:00+25ссв38665 0.0 1012927
12:00+30с46511 0.0 10101182
15:00+31с34482 0.0 10081167
18:00+30ссв235312 0.0 1007958
21:00+24св26780 0.1 1009196
2 марта, вт
вт200:00+23св27830 0.0 1010276
03:00+22св27880 0.0 1010250
06:00+21св25904 0.0 1011227
09:00+26ссв37663 0.0 1012726
12:00+30с46500 0.5 10121124
15:00+32ссв324418 1.4 10091400
18:00+30св2353100 1.9 1009744
21:00+25св267499 2.4 1011229
3 марта, ср
ср300:00+22св248937 1.5 1012142
03:00+21в239144 1.5 1011155
06:00+21св149142 0.1 1012175
09:00+24св377929 0.4 1014597
12:00+30с46573 2.1 1012845
15:00+32с334718 4.8 10101279
18:00+30всв3557100 0.2 1009485
21:00+26всв397579 0.3 1011394
4 марта, чт
чт400:00+22всв399267 7.7 1013351
03:00+22ссв3119083 7.8 1011535
06:00+22ссв31090100 0.0 1011600
09:00+25с4878100 0.0 1012908
12:00+29с455772 0.0 10111018
15:00+31с335167 0.2 10081162
18:00+28ссв246598 1.6 1007408
21:00+24зсз259199 16.1 1009218
5 марта, пт
пт500:00+22вюв2396100 15.1 1009190
03:00+22ссв2496100 15.9 1007283
06:00+22св3795100 0.3 1006517
09:00+23ссв3691100 0.4 1008518
12:00+26с4673100 0.3 1007679
15:00+28ссз336486 0.9 1005884
18:00+28с126638 0.3 1004553
21:00+23с119053 2.7 100660